COSMOS 2251 DEB, 33940

Orbit data source: Space-Track

COSMOS 2251 DEB, 33940 is space debris in LEO originally from a launch on Wed, 16 Jun 1993 UTC launched from the Plesetsk Missile And Space Complex (PKMTR). The debris from Iridium 33, an American commercial communications satellite, has been tracked extensively since its accidental collision with the defunct Russian satellite Cosmos 2251 in 2009. This event, occurring at high speed in low Earth orbit (LEO), generated thousands of pieces of space debris, significantly increasing the risk of further collisions. The Iridium 33 debris cloud has impacted space traffic management and orbital debris mitigation strategies, making it a subject of ongoing study in space situational awareness.

Loading next visibility...
Identifier
33940, 1993-036EV
Orbit
LEO
Country
Flag of CISCIS
Related business
Manufacturer
Unknown
Mission
Spacecraft
Bus & Motor
Unknown
Mass
Unknown
Launch date (UTC)
1993-06-16 (33 years ago)
Launch vehicle
Unknown
Launch site
Plesetsk Missile And Space Complex (PKMTR)
Object type
Payload
Rocket body
Debris
Shape & HBR
Unknown shape, 0.2 m
Radar Cross Section
Medium (>0.1 m² and <1 m²)

Expand to show TLE details & history
Last TLE update: 7 hours ago

TLE from 7 hours ago
0 COSMOS 2251 DEB
1 33940U 93036EV  26266.89298933  .00001840  00000-0  38141-3 0  9996
2 33940  74.0391 319.4366 0012948 320.4045 214.6487 14.60910656927557
Epoch: 2026-09-23T21:25Z
TLE epoch observation values (Epoch: 2026-09-23T21:25:54.278Z)
Latitude
4.75429°
Longitude
173.86717°
Altitude
699.919 km
Speed
7.503 km/s
True Right ascension
09h 12m 19s
True Declination
4° 43' 33"
Sunlit
Object was in daylight at epoch
Visualization orbit readout
Latitude
Unknown
Longitude
Unknown
Altitude
Unknown
Speed
Unknown
Apparent Right ascension
Unknown
Apparent Declination
Unknown
Sunlit
N/A
Visualization observer readout
Local Sidereal Time
21:15:43
Azimuth
Unknown
Elevation
Unknown
Doppler factor
Unknown
Orbital elements
Apogee altitude
696.98 km
Perigee altitude
678.682 km
Semi-major axis
7,065.968 km
Eccentricity
0.00129
Inclination
74.0391°
RAAN
319.4366°
Arg. of periapsis
320.4045°
True anomaly
214.56446°
Mean anomaly
214.6487°
Eccentric anomaly
214.60657°
Mean motion
3.65414 °/min
Orbital period
98.52 mins
BSTAR
0.00038141

Documentation

Showing up to 5 results
|